Overview Statistics Trail Chart Weather Telemetry Raw packets
 

This is the latest recevied weather packets stored in our database for station/object VE3TEJ. If no packets are shown the sender has not sent any weather packets the latest 10 day(s).

<< 95 96 97 98 99 100 101 >>
Time Temp. Humidity Pressure Rain* Wind** Luminosity Snow
1788027156 27.78° C 56% 1026.5 hPa 0 mm - - -
1788026856 27.78° C 55% 1026.7 hPa 0 mm - - -
1788026555 27.78° C 56% 1026.9 hPa 0 mm - - -
1788026508 27.22° C 55% 1026.7 hPa 0 mm - - -
1788026255 27.22° C 55% 1026.8 hPa 0 mm - - -
1788025956 27.22° C 56% 1027 hPa 0 mm - - -
1788025656 27.22° C 56% 1026.9 hPa 0 mm - - -
1788025607 27.22° C 56% 1026.7 hPa 0 mm - - -
1788025355 27.22° C 56% 1027 hPa 0 mm - - -
1788025055 27.22° C 55% 1026.9 hPa 0 mm - - -
1788024757 27.78° C 54% 1026.8 hPa 0 mm - - -
1788024708 27.78° C 56% 1026.9 hPa 0 mm - - -
1788024456 27.22° C 53% 1027 hPa 0 mm - - -
1788024156 27.22° C 56% 1027.1 hPa 0 mm - - -
1788023856 26.67° C 57% 1027.2 hPa 0 mm - - -
1788023556 26.67° C 56% 1027.2 hPa 0 mm - - -
1788023255 26.67° C 57% 1027.2 hPa 0 mm - - -
1788022957 26.67° C 56% 1027.1 hPa 0 mm - - -
1788022909 26.67° C 57% 1027.3 hPa 0 mm - - -
1788022657 26.67° C 58% 1027.3 hPa 0 mm - - -
1788022356 26.67° C 56% 1027.5 hPa 0 mm - - -
1788022056 26.67° C 58% 1027.4 hPa 0 mm - - -
1788022008 26.67° C 57% 1027.4 hPa 0 mm - - -
1788021756 26.67° C 56% 1027.4 hPa 0 mm - - -
1788021455 26.67° C 59% 1027.6 hPa 0 mm - - -

* Rain latest hour (hover to see other rain measurements)
** Current wind speed in m/s (hover to see current wind gust speed)